Location: Madrid
(40.4000°N, 3.6830°W)
Time: 09:03:08
(UTC+01:00)

ISS - Pass Details

Date: 14 November 2017
Orbit: 402 x 407 km, 51.6° (Epoch: 21 November)

Event Time Altitude Azimuth Distance (km) Brightness Sun altitude
Exits shadow 07:17:56 10° 311° (NW) 1,488 -1.5 -8.3°
Reaches altitude 10° 07:18:01 10° 311° (NW) 1,455 -1.6 -8.3°
Maximum altitude 07:21:16 70° 35° (NE) 431 -3.6 -7.7°
Drops below altitude 10° 07:24:30 10° 120° (ESE) 1,448 0.6 -7.1°
Sets 07:26:34 0° 123° (ESE) 2,304 1.9 -6.7°
